Погода в Трелью

Аргентина     43°15′41″S   65°16′56″W
темп.,
°C
ветер,
м/с
пор.,
м/с
влажн.,
%
обл.,
%
осадки,
мм/ч
давл.,
гПа
погр.,
м
25 октября, пн
пн2500:00+16зюз142536100 0.0 9962034
03:00+15зюз142436100 0.0 9961915
06:00+13зюз142440100 0.0 10001552
09:00+15юз14202964 0.0 10042097
12:00+19юз1215195 0.0 10052890
15:00+22зюз131717100 0.0 10033799
18:00+21зюз131823100 0.0 10033039
21:00+16зюз7133987 0.0 1005531
26 октября, вт
вт2600:00+18зюз1421355 0.0 1005961
03:00+16зсз91639100 0.0 1004492
06:00+16зсз9183694 0.0 1003497
09:00+21з162324100 0.0 10031634
12:00+24з192119100 0.0 10031454
15:00+26зюз161818100 0.0 10041958
18:00+25з121719100 0.0 10052010
21:00+22зюз10172380 0.0 1008472
27 октября, ср
ср2700:00+20зюз815308 0.0 1010419
03:00+17зюз58389 0.0 1012143
06:00+14сз33440 0.0 101326
09:00+21сз45270 0.0 1015481
12:00+27з56190 0.0 10131899
15:00+30зсз58140 0.0 10112940
18:00+30св98130 0.0 10101096
21:00+21ссв712280 0.0 1012241
28 октября, чт
чт2800:00+17ссв22460 0.0 101326
03:00+15вюв11475 0.0 101311
06:00+16ююз462220 0.0 101572
09:00+23ю67125 0.0 1016578
12:00+27ююв3477 0.0 10151560
15:00+28в5491 0.0 10141042
18:00+23в88173 0.0 1014482
21:00+18в462577 0.0 1014127
29 октября, пт
пт2900:00+14юв235171 0.0 101545
03:00+13юз11447 0.0 101210
06:00+14зюз222950 0.0 101211
09:00+23юз5722100 0.0 1012498
12:00+28зюз8917100 0.0 10111790
15:00+30зюз101217100 0.0 10103130
18:00+29юз121218100 0.0 10113429
21:00+11юв12217392 0.0 1019866